TimePST,TemperatureF,Dew PointF,Humidity,Sea Level PressureIn,VisibilityMPH,Wind Direction,Wind SpeedMPH,Gust SpeedMPH,PrecipitationIn,Events,Conditions,WindDirDegrees,DateUTC
12:53 AM,39.0,36.0,89,30.25,10.0,East,3.5,-,N/A,,Clear,100,2013-03-09 08:53:00
1:53 AM,37.9,35.1,89,30.27,10.0,Calm,Calm,-,N/A,,Clear,0,2013-03-09 09:53:00
2:53 AM,36.0,33.1,89,30.29,10.0,Calm,Calm,-,N/A,,Clear,0,2013-03-09 10:53:00
3:53 AM,35.1,33.1,92,30.30,10.0,Calm,Calm,-,N/A,,Clear,0,2013-03-09 11:53:00
4:53 AM,35.1,32.0,89,30.32,10.0,East,3.5,-,N/A,,Clear,100,2013-03-09 12:53:00
5:53 AM,34.0,30.9,89,30.34,10.0,SE,3.5,-,N/A,,Clear,130,2013-03-09 13:53:00
6:53 AM,30.9,28.9,92,30.38,10.0,Calm,Calm,-,N/A,,Partly Cloudy,0,2013-03-09 14:53:00
7:30 AM,35.6,33.8,93,30.40,7.0,Calm,Calm,-,N/A,,Mostly Cloudy,0,2013-03-09 15:30:00
7:53 AM,35.1,33.1,92,30.42,7.0,West,3.5,-,N/A,,Overcast,270,2013-03-09 15:53:00
7:57 AM,35.6,33.8,93,30.42,2.5,Calm,Calm,-,N/A,,Overcast,0,2013-03-09 15:57:00
8:38 AM,37.4,35.6,93,30.43,2.5,Calm,Calm,-,N/A,,Overcast,0,2013-03-09 16:38:00
8:53 AM,37.0,36.0,96,30.45,2.5,Calm,Calm,-,N/A,,Overcast,0,2013-03-09 16:53:00
9:19 AM,37.4,37.4,100,30.45,1.0,SE,3.5,-,N/A,,Overcast,130,2013-03-09 17:19:00
9:43 AM,39.2,37.4,93,30.45,1.0,East,3.5,-,N/A,,Scattered Clouds,100,2013-03-09 17:43:00
9:53 AM,39.9,37.9,93,30.45,3.0,Calm,Calm,-,N/A,,Partly Cloudy,0,2013-03-09 17:53:00
10:53 AM,45.0,37.9,76,30.46,7.0,Calm,Calm,-,N/A,,Partly Cloudy,0,2013-03-09 18:53:00
11:53 AM,50.0,39.0,66,30.47,10.0,NNE,3.5,-,N/A,,Partly Cloudy,20,2013-03-09 19:53:00
12:53 PM,53.1,37.9,57,30.46,10.0,North,3.5,-,N/A,,Partly Cloudy,10,2013-03-09 20:53:00
1:53 PM,55.0,37.0,51,30.45,10.0,North,3.5,-,N/A,,Partly Cloudy,350,2013-03-09 21:53:00
2:53 PM,57.0,34.0,42,30.44,10.0,ENE,4.6,-,N/A,,Scattered Clouds,70,2013-03-09 22:53:00
3:53 PM,57.9,26.1,30,30.44,10.0,ENE,3.5,-,N/A,,Scattered Clouds,60,2013-03-09 23:53:00
4:53 PM,57.9,33.1,39,30.43,10.0,ENE,3.5,-,N/A,,Scattered Clouds,70,2013-03-10 00:53:00
5:53 PM,55.9,32.0,40,30.45,10.0,Calm,Calm,-,N/A,,Scattered Clouds,0,2013-03-10 01:53:00
6:53 PM,50.0,36.0,59,30.46,10.0,Calm,Calm,-,N/A,,Scattered Clouds,0,2013-03-10 02:53:00
7:53 PM,46.9,35.1,63,30.48,10.0,Calm,Calm,-,N/A,,Partly Cloudy,0,2013-03-10 03:53:00
8:53 PM,46.9,37.9,71,30.50,10.0,WNW,5.8,-,N/A,,Partly Cloudy,300,2013-03-10 04:53:00
9:53 PM,46.0,37.0,71,30.50,10.0,Calm,Calm,-,N/A,,Partly Cloudy,0,2013-03-10 05:53:00
10:53 PM,43.0,36.0,76,30.51,10.0,East,3.5,-,N/A,,Mostly Cloudy,100,2013-03-10 06:53:00
11:53 PM,41.0,37.0,86,30.50,10.0,ENE,4.6,-,N/A,,Partly Cloudy,70,2013-03-10 07:53:00